TimeEST,TemperatureF,Dew PointF,Humidity,Sea Level PressureIn,VisibilityMPH,Wind Direction,Wind SpeedMPH,Gust SpeedMPH,PrecipitationIn,Events,Conditions,WindDirDegrees,DateUTC
12:53 AM,57.0,52.0,83,30.16,10.0,SSW,5.8,-,N/A,,Clear,210,2012-12-05 05:53:00
1:53 AM,55.9,52.0,87,30.15,10.0,SW,6.9,-,N/A,,Clear,220,2012-12-05 06:53:00
2:53 AM,57.0,52.0,83,30.15,10.0,SW,8.1,-,N/A,,Scattered Clouds,230,2012-12-05 07:53:00
3:53 AM,55.9,52.0,87,30.14,10.0,SW,6.9,-,N/A,,Clear,220,2012-12-05 08:53:00
4:53 AM,57.9,52.0,81,30.13,10.0,SSW,8.1,-,N/A,,Overcast,210,2012-12-05 09:53:00
5:53 AM,55.9,52.0,87,30.14,10.0,SSW,10.4,-,N/A,,Mostly Cloudy,200,2012-12-05 10:53:00
6:53 AM,55.9,52.0,87,30.15,10.0,SW,8.1,-,N/A,,Overcast,220,2012-12-05 11:53:00
7:53 AM,55.9,52.0,87,30.16,10.0,SW,9.2,-,N/A,,Mostly Cloudy,220,2012-12-05 12:53:00
9:53 AM,64.0,54.0,70,30.17,10.0,SW,5.8,-,N/A,,Partly Cloudy,230,2012-12-05 14:53:00
10:53 AM,64.9,55.0,70,30.15,10.0,West,6.9,-,N/A,,Overcast,260,2012-12-05 15:53:00
11:53 AM,66.0,57.0,73,30.14,10.0,West,10.4,-,N/A,,Overcast,280,2012-12-05 16:53:00
12:53 PM,64.9,57.9,78,30.12,10.0,SW,4.6,-,0.00,Rain,Light Rain,220,2012-12-05 17:53:00
1:53 PM,64.0,59.0,84,30.11,10.0,SSW,4.6,-,0.01,Rain,Light Rain,210,2012-12-05 18:53:00
2:53 PM,64.9,59.0,81,30.10,10.0,Calm,Calm,-,0.00,Rain,Light Rain,0,2012-12-05 19:53:00
3:12 PM,64.4,57.2,77,30.11,10.0,Variable,3.5,-,0.00,,Mostly Cloudy,0,2012-12-05 20:12:00
3:53 PM,64.9,55.9,73,30.09,10.0,Variable,3.5,-,0.00,,Mostly Cloudy,0,2012-12-05 20:53:00
4:53 PM,63.0,57.0,81,30.10,10.0,NNE,4.6,-,0.00,,Overcast,20,2012-12-05 21:53:00
5:53 PM,62.1,53.1,72,30.13,10.0,North,4.6,-,0.00,Rain,Light Rain,10,2012-12-05 22:53:00
6:53 PM,60.1,55.0,83,30.14,10.0,NNE,4.6,-,0.00,,Overcast,30,2012-12-05 23:53:00
7:53 PM,60.1,55.9,86,30.16,10.0,ENE,8.1,-,0.01,Rain,Light Rain,60,2012-12-06 00:53:00
8:53 PM,57.9,53.1,84,30.17,10.0,ENE,4.6,-,0.01,,Overcast,60,2012-12-06 01:53:00
9:53 PM,57.9,46.9,67,30.17,10.0,NE,4.6,-,N/A,,Overcast,40,2012-12-06 02:53:00
10:53 PM,57.0,43.0,59,30.16,10.0,NNE,4.6,-,N/A,,Overcast,30,2012-12-06 03:53:00
11:53 PM,57.0,44.1,62,30.16,10.0,North,3.5,-,N/A,,Overcast,10,2012-12-06 04:53:00